Simultaneous Nadir Overpasses (SNOs) Predictions

Prediction of SNOs between GOES-14 and NOAA-20 Satellite Orbit:

Table of predicted SNOs for the next 14.0 days since TLE Epoch: 6/11/2022
Index Date Time (GOES-14) GOES-14 Lat,Lon NOAA-20 Lat,Lon Distance(km) Time Diff (sec)
1 06/11/2022 08:08:21 -0.03,-104.48 -0.93,-100.56 447.32 80
2 06/12/2022 20:27:38 0.06,-104.74 -0.18,-105.88 130.03 80
3 06/13/2022 20:11:32 0.05,-104.74 0.81,-101.35 386.75 80
4 06/15/2022 08:30:39 -0.09,-104.48 0.40,-106.61 242.18 80
5 06/16/2022 08:14:33 -0.07,-104.49 -0.59,-102.07 275.05 80
6 06/17/2022 20:33:51 0.10,-104.75 -0.51,-107.39 301.51 80
7 06/18/2022 20:17:45 0.09,-104.75 0.48,-102.86 215.62 80
8 06/20/2022 08:36:52 -0.12,-104.50 0.67,-108.13 413.57 80
9 06/21/2022 08:20:47 -0.10,-104.50 -0.32,-103.59 104.16 80
10 06/22/2022 20:40:04 0.14,-104.78 -0.77,-108.92 470.83 80
11 06/23/2022 20:23:59 0.12,-104.79 0.22,-104.38 46.71 80
